Weather History for Covington, KY

Change the Weather History Date:

Friday, December 14, 2012

  Actual Average Record
Temperature  
Mean Temperature 39 °F 34 °F  
Max Temperature 53 °F 42 °F 69 °F (1975)
Min Temperature 25 °F 27 °F 0 °F (1901)
Degree Days  
Heating Degree Days 26 31  
Month to date heating degree days 267 403  
Since 1 July heating degree days 1373 1363  
Cooling Degree Days 0 0  
Month to date cooling degree days 0 0  
Year to date cooling degree days 1439 1121  
Moisture  
Dew Point 26 °F    
Average Humidity 64    
Maximum Humidity 92    
Minimum Humidity 35    
Precipitation  
Precipitation 0.00 in 0.10 in 2.05 in (1948)
Month to date precipitation 3.27 1.55  
Year to date precipitation 36.30 40.70  
Snow  
Snow 0.00 in 0.20 in 4.50 in (1901)
Month to date snowfall T 1.7  
Since 1 July snowfall T 2.5  
Snow Depth 0.00 in    
Sea Level Pressure  
Sea Level Pressure 30.25 in    
Wind  
Wind Speed 6 mph (South)    
Max Wind Speed 12 mph    
Max Gust Speed 16 mph    
Visibility 10 miles    
Events      
T = Trace of Precipitation, MM = Missing Value Source: NWS Daily Summary

Daily Weather History Graph

Daily Weather History Graph

Search for Another Location

Airport:

Trip Planner

Search our weather history database for the weather conditions in past years. The results will help you decide how hot, cold, wet, or windy it might be!

Date:

Astronomy

Dec. 14, 2012 Rise Set
Actual Time 7:50 AM EST 5:17 PM EST
Civil Twilight 7:20 AM EST 5:47 PM EST
Nautical Twilight 6:46 AM EST 6:20 PM EST
Astronomical Twilight 6:14 AM EST 6:53 PM EST
Moon 8:54 AM EST (12/14) 7:08 PM EST (12/14)
Length of Visible Light 10h 26m
Length of Day
9h 26m
Waxing Crescent, 3% of the Moon is Illuminated
Dec 14
Waxing Crescent
Dec 20
First Quarter
Dec 28
Full
Jan 4
Last Quarter
Jan 11
New

Hourly Weather History & Observations

Time (EST) Temp. Windchill Dew Point Humidity Pressure Visibility Wind Dir Wind Speed Gust Speed Precip Events Conditions
12:52 AM 33.8 °F 28.6 °F 26.6 °F 75% 30.27 in 10.0 mi SSW 5.8 mph - N/A   Clear
1:52 AM 28.0 °F 21.7 °F 25.0 °F 88% 30.28 in 9.0 mi South 5.8 mph - N/A   Partly Cloudy
2:52 AM 32.0 °F 24.8 °F 26.1 °F 79% 30.29 in 10.0 mi South 8.1 mph - N/A   Partly Cloudy
3:52 AM 33.1 °F 26.1 °F 27.0 °F 78% 30.30 in 10.0 mi SSW 8.1 mph - N/A   Clear
4:52 AM 30.9 °F 26.2 °F 26.1 °F 82% 30.30 in 10.0 mi SSW 4.6 mph - N/A   Clear
5:52 AM 28.0 °F 22.8 °F 24.1 °F 85% 30.30 in 9.0 mi SSW 4.6 mph - N/A   Clear
6:52 AM 30.9 °F - 26.1 °F 82% 30.31 in 10.0 mi Calm Calm - N/A   Clear
7:52 AM 25.0 °F 18.1 °F 23.0 °F 92% 30.32 in 8.0 mi South 5.8 mph - N/A   Clear
8:52 AM 33.1 °F 26.9 °F 27.0 °F 78% 30.31 in 10.0 mi SSW 6.9 mph - N/A   Partly Cloudy
9:52 AM 39.0 °F 34.0 °F 28.0 °F 65% 30.31 in 10.0 mi SSW 6.9 mph - N/A   Clear
10:52 AM 44.1 °F 39.5 °F 27.0 °F 51% 30.32 in 10.0 mi SW 8.1 mph - N/A   Clear
11:52 AM 46.9 °F - 27.0 °F 46% 30.30 in 10.0 mi SSW 9.2 mph - N/A   Partly Cloudy
12:52 PM 51.1 °F - 27.0 °F 39% 30.27 in 10.0 mi SSW 9.2 mph - N/A   Scattered Clouds
1:52 PM 52.0 °F - 27.0 °F 38% 30.24 in 10.0 mi SSW 8.1 mph - N/A   Scattered Clouds
2:52 PM 53.1 °F - 26.1 °F 35% 30.21 in 10.0 mi South 9.2 mph - N/A   Mostly Cloudy
3:52 PM 52.0 °F - 27.0 °F 38% 30.20 in 10.0 mi South 8.1 mph - N/A   Mostly Cloudy
4:52 PM 46.9 °F - 28.0 °F 48% 30.20 in 10.0 mi South 6.9 mph - N/A   Mostly Cloudy
5:52 PM 46.0 °F 43.9 °F 26.1 °F 46% 30.20 in 10.0 mi South 4.6 mph - N/A   Overcast
6:52 PM 41.0 °F 38.0 °F 27.0 °F 57% 30.20 in 10.0 mi SSE 4.6 mph - N/A   Overcast
7:52 PM 42.1 °F 39.2 °F 26.1 °F 53% 30.21 in 10.0 mi SSE 4.6 mph - N/A   Overcast
8:52 PM 41.0 °F 37.1 °F 26.1 °F 55% 30.21 in 10.0 mi South 5.8 mph - N/A   Overcast
9:52 PM 42.1 °F 38.4 °F 26.1 °F 53% 30.19 in 10.0 mi South 5.8 mph - N/A   Overcast
10:52 PM 43.0 °F 41.3 °F 26.1 °F 51% 30.17 in 10.0 mi South 3.5 mph - N/A   Overcast
11:52 PM 43.0 °F 41.3 °F 26.1 °F 51% 30.16 in 10.0 mi South 3.5 mph - N/A   Overcast